Lawrence, KS

2:40 PM CDT on September 25, 2017 (GMT -0500)
Lawrence Municipal

Weather History for KLWC - February, 2013

Change the Weather History Date:

Friday, February 22, 2013

  Actual Average Record
Temperature  
Mean Temperature 17 °F 36 °F  
Max Temperature 28 °F 48 °F 82 °F (2017)
Min Temperature 5 °F 25 °F 5 °F (2013)
Degree Days  
Heating Degree Days 48 29  
Month to date heating degree days 681 699  
Since 1 July heating degree days 3618 3850  
Cooling Degree Days 0 0  
Month to date cooling degree days 0 0  
Year to date cooling degree days 0 0  
Moisture  
Dew Point 15 °F    
Average Humidity 78    
Maximum Humidity 92    
Minimum Humidity 63    
Precipitation  
Precipitation T in 0.05 in 0.07 in (1999)
Month to date precipitation 1.39 1.02  
Year to date precipitation 2.35 2.03  
Sea Level Pressure  
Sea Level Pressure 30.00 in    
Wind  
Wind Speed 9 mph (WNW)    
Max Wind Speed 20 mph    
Max Gust Speed 25 mph    
Visibility 5 miles    
Events Snow    
T = Trace of Precipitation, MM = Missing Value Source: NWS Daily Summary

Daily Weather History Graph

Daily Weather History Graph

Search for Another Location

Airport or City:

Trip Planner

Search our weather history database for the weather conditions in past years. The results will help you decide how hot, cold, wet, or windy it might be!

Date:

Astronomy

Feb. 22, 2013 Rise Set
Actual Time 7:02 AM CST 6:06 PM CST
Civil Twilight 6:35 AM CST 6:33 PM CST
Nautical Twilight 6:04 AM CST 7:04 PM CST
Astronomical Twilight 5:33 AM CST 7:35 PM CST
Moon 3:19 PM CST (2/22) 4:47 AM CST (2/22)
Length of Visible Light 11h 57m
Length of Day
11h 03m
Waxing Gibbous, 90% of the Moon is Illuminated
Feb 22
Waxing Gibbous
Feb 25
Full
Mar 4
Last Quarter
Mar 11
New
Mar 19
First Quarter

Hourly Weather History & Observations

Time (CST) Temp. Windchill Dew Point Humidity Pressure Visibility Wind Dir Wind Speed Gust Speed Precip Events Conditions
12:52 AM 25.0 °F 17.1 °F 21.9 °F 88% 29.85 in 2.5 mi WNW 6.9 mph - 0.00 in Snow Light Snow
1:01 AM 24.8 °F 16.1 °F 21.2 °F 86% 29.82 in 2.5 mi WNW 8.1 mph - 0.00 in Snow Light Snow
1:52 AM 25.0 °F 17.1 °F 21.9 °F 88% 29.86 in 3.0 mi WNW 6.9 mph - 0.00 in Snow Light Snow
2:03 AM 24.8 °F 16.1 °F 21.2 °F 86% 29.83 in 2.5 mi WNW 8.1 mph - 0.00 in Snow Light Snow
2:12 AM 24.8 °F 14.0 °F 21.2 °F 86% 29.83 in 4.0 mi WNW 11.5 mph - 0.00 in   Overcast
2:52 AM 24.1 °F 12.5 °F 19.9 °F 84% 29.86 in 7.0 mi WNW 12.7 mph - 0.00 in   Overcast
3:52 AM 24.1 °F 12.5 °F 19.0 °F 81% 29.88 in 8.0 mi WNW 12.7 mph - N/A   Overcast
4:48 AM 23.0 °F 11.7 °F 17.6 °F 80% 29.88 in 7.0 mi West 11.5 mph - N/A   Mostly Cloudy
4:52 AM 23.0 °F 10.6 °F 18.0 °F 81% 29.92 in 7.0 mi West 13.8 mph - N/A   Scattered Clouds
5:05 AM 23.0 °F 10.1 °F 17.6 °F 80% 29.89 in 7.0 mi WNW 15.0 mph - N/A   Mostly Cloudy
5:26 AM 23.0 °F 10.6 °F 17.6 °F 80% 29.90 in 6.0 mi WNW 13.8 mph - N/A   Haze
6:33 AM 21.2 °F 9.5 °F 15.8 °F 80% 29.91 in 6.0 mi WNW 11.5 mph - N/A   Haze
6:52 AM 19.0 °F 5.6 °F 15.1 °F 85% 29.96 in 6.0 mi WNW 13.8 mph - N/A   Clear
7:18 AM 19.4 °F 5.5 °F 15.8 °F 86% 29.94 in 4.0 mi WNW 15.0 mph - N/A   Haze
7:52 AM 19.9 °F 5.2 °F 15.1 °F 81% 30.00 in 4.0 mi WNW 17.3 mph - N/A   Haze
8:52 AM 19.9 °F 6.2 °F 15.1 °F 81% 30.01 in 5.0 mi NW 15.0 mph - N/A   Haze
9:12 AM 19.4 °F 5.0 °F 15.8 °F 86% 29.98 in 5.0 mi NW 16.1 mph 21.9 mph N/A   Haze
9:52 AM 21.9 °F 9.2 °F 15.1 °F 75% 30.04 in 6.0 mi WNW 13.8 mph - N/A   Haze
10:52 AM 23.0 °F 11.7 °F 16.0 °F 74% 30.07 in 7.0 mi WNW 11.5 mph - N/A   Scattered Clouds
11:52 AM 24.1 °F 12.0 °F 16.0 °F 71% 30.09 in 7.0 mi WNW 13.8 mph - N/A   Clear
12:52 PM 26.1 °F 15.0 °F 17.1 °F 69% 30.09 in 8.0 mi West 12.7 mph - N/A   Clear
1:52 PM 27.0 °F 15.6 °F 17.1 °F 66% 30.08 in 9.0 mi WNW 13.8 mph - N/A   Clear
2:52 PM 28.0 °F 18.1 °F 17.1 °F 63% 30.07 in 8.0 mi West 11.5 mph - N/A   Clear
3:52 PM 27.0 °F 16.7 °F 17.1 °F 66% 30.07 in 8.0 mi WNW 11.5 mph - N/A   Clear
4:52 PM 27.0 °F 18.7 °F 16.0 °F 63% 30.07 in 8.0 mi WNW 8.1 mph - N/A   Clear
5:52 PM 24.1 °F 17.0 °F 15.1 °F 69% 30.09 in 7.0 mi West 5.8 mph - N/A   Clear
6:52 PM 19.0 °F 12.3 °F 12.0 °F 74% 30.12 in 8.0 mi NW 4.6 mph - N/A   Clear
7:52 PM 18.0 °F - 12.0 °F 78% 30.12 in 7.0 mi Calm Calm - N/A   Clear
8:52 PM 12.0 °F - 8.1 °F 84% 30.13 in 6.0 mi Calm Calm - N/A   Clear
9:52 PM 12.9 °F 6.9 °F 10.0 °F 88% 30.13 in 4.0 mi NNW 3.5 mph - N/A   Clear
10:52 PM 9.0 °F 2.4 °F 6.1 °F 88% 30.13 in 3.0 mi NW 3.5 mph - N/A   Clear
11:05 PM 6.8 °F - 3.2 °F 85% 30.08 in 2.0 mi Calm Calm - N/A   Clear
11:35 PM 5.0 °F - 1.4 °F 85% 30.09 in 0.8 mi Calm Calm - N/A   Clear
11:49 PM 8.6 °F - 6.8 °F 92% 30.09 in 2.0 mi Calm Calm - N/A   Clear
11:52 PM 8.1 °F - 6.1 °F 92% 30.13 in 2.5 mi Calm Calm - N/A   Clear